Tracking 31027 objects as of 19-Jul-2025
HD Live streaming from Space Station
objects crossing your sky now

FENGYUN 1C DEB

Track FENGYUN 1C DEB now!
10-day predictions


NORAD ID: 31613
Int'l Code: 1999-025BZT
Perigee: 776.9 km
Apogee: 1,288.4 km
Inclination: 98.4 °
Period: 105.7 minutes
Semi major axis: 7403 km
RCS: 0.0083 m2 (small)
Launch date: May 10, 1999
Source: People's Republic of China (PRC)
Launch site: Taiyaun Space Center, China (TSC)

Note: This is SATELLITE DEBRIS
Your satellite tracking list
IRIDIUM 134
Track 1 satellite(s)




NASA's NSSDC Master Catalog

Two Line Element Set (TLE):
1 31613U 99025BZT 25199.01731767  .00000962  00000-0  85319-3 0  9993
2 31613  98.4390  45.4999 0345414 136.4884 226.4074 13.62798991897491
Source of the keplerian elements: AFSPC